Location: Appleton
(44.2618°N, 88.4157°W)
Time: 16:39:12
(UTC+00:00)

S-56A Canister/Altair - All Passes

Search period start: 27 February 2021 00:00
Search period end: 09 March 2021 00:00
Orbit: 632 x 2501 km, 38.9° (Epoch: 27 February)

Date Brightness Start Highest point End Pass type
(mag) Time Alt. Az. Time Alt. Az. Time Alt. Az.
27 Feb - 00:31:43 10° W 00:46:14 67° SSW 00:56:58 10° ESE visible
27 Feb - 02:39:09 10° W 02:50:55 40° SW 02:59:21 10° SSE visible
27 Feb - 04:50:20 10° WSW 04:53:19 12° SW 04:56:02 10° SW visible
27 Feb - 17:49:44 10° SSE 17:56:54 16° SE 18:04:26 10° E daylight
27 Feb - 19:47:51 10° SSW 20:00:51 42° SE 20:13:59 10° E daylight
27 Feb - 21:51:42 10° WSW 22:06:35 66° SSE 22:19:44 10° E daylight
27 Feb - 23:58:00 10° W 00:12:51 69° S 00:24:14 10° ESE visible
28 Feb - 02:05:16 10° W 02:17:55 45° SSW 02:27:04 10° SE visible
28 Feb - 04:14:58 10° W 04:20:42 15° SW 04:25:33 10° SSW visible
28 Feb - 17:18:45 10° SSE 17:23:53 13° SE 17:29:16 10° ESE daylight
28 Feb - 19:15:06 10° SSW 19:27:29 39° SE 19:40:30 10° E daylight
28 Feb - 21:18:23 10° WSW 21:33:01 64° SSE 21:46:37 10° E daylight
28 Feb - 23:24:20 10° W 23:39:24 70° S 23:51:26 10° ESE daylight
01 Mar - 01:31:26 10° W 01:44:50 49° SSW 01:54:39 10° SE visible
01 Mar - 03:40:21 10° W 03:48:01 19° SW 03:54:15 10° S visible
01 Mar - 18:42:29 10° SSW 18:54:11 35° SE 19:06:54 10° E daylight
01 Mar - 20:45:09 10° SW 20:59:28 61° SSE 21:13:25 10° E daylight
01 Mar - 22:50:45 10° W 23:05:52 71° S 23:18:32 10° ESE daylight
02 Mar - 00:57:38 10° W 01:11:37 54° SSW 01:22:09 10° SE visible
02 Mar - 03:06:01 10° W 03:15:15 23° SW 03:22:34 10° S visible
02 Mar - 18:10:01 10° SSW 18:20:56 31° SE 18:33:08 10° E daylight
02 Mar - 20:12:03 10° SW 20:25:54 59° SSE 20:40:07 10° E daylight
02 Mar - 22:17:14 10° W 22:32:18 71° S 22:45:33 10° E daylight
03 Mar - 00:23:53 10° W 00:38:20 58° SSW 00:49:33 10° SE visible
03 Mar - 02:31:51 10° W 02:42:24 28° SW 02:50:39 10° S visible
03 Mar - 17:37:44 10° S 17:47:46 28° SE 17:59:14 10° E daylight
03 Mar - 19:39:03 10° SW 19:52:23 56° SSE 20:06:43 10° E daylight
03 Mar - 21:43:49 10° WSW 21:58:41 71° S 22:12:28 10° E daylight
03 Mar - 23:50:12 10° W 00:04:57 61° SSW 00:16:51 10° SE visible
04 Mar - 01:57:48 10° W 02:09:27 32° SW 02:18:34 10° SSE visible
04 Mar - 17:05:39 10° S 17:14:42 24° SE 17:25:10 10° E daylight
04 Mar - 19:06:11 10° SW 19:18:56 52° SSE 19:33:14 10° E daylight
04 Mar - 21:10:29 10° WSW 21:25:03 71° S 21:39:17 10° E daylight
04 Mar - 23:16:35 10° W 23:31:29 64° SSW 23:44:02 10° ESE daylight
05 Mar - 01:23:51 10° W 01:36:24 36° SW 01:46:20 10° SSE visible
05 Mar - 16:33:47 10° S 16:41:43 20° SE 16:50:52 10° E daylight
05 Mar - 18:33:25 10° SW 18:45:32 49° SSE 18:59:39 10° E daylight
05 Mar - 20:37:16 10° WSW 20:51:25 70° S 21:06:00 10° E daylight
05 Mar - 22:43:03 10° W 22:57:59 66° SSW 23:11:07 10° ESE daylight
06 Mar - 00:50:01 10° W 01:03:15 41° SW 01:13:57 10° SSE visible
06 Mar - 03:01:08 10° W 03:06:14 13° WSW 03:10:51 10° SSW visible
06 Mar - 16:02:16 10° SSE 16:08:48 17° SE 16:16:17 10° E daylight
06 Mar - 18:00:47 10° SSW 18:12:12 45° SSE 18:25:58 10° E daylight
06 Mar - 20:04:08 10° WSW 20:17:49 68° SSE 20:32:37 10° E daylight
06 Mar - 22:09:36 10° W 22:24:24 68° SSW 22:38:06 10° ESE daylight
07 Mar - 00:16:14 10° W 00:30:00 45° SSW 00:41:26 10° SSE visible
07 Mar - 02:25:57 10° W 02:33:24 17° SW 02:39:56 10° SSW visible
07 Mar - 15:31:21 10° SSE 15:36:00 13° ESE 15:41:07 10° E daylight
07 Mar - 17:28:17 10° SSW 17:38:58 41° SE 17:52:13 10° E daylight
07 Mar - 19:31:07 10° WSW 19:44:15 66° SSE 19:59:11 10° E daylight
07 Mar - 21:36:14 10° W 21:50:47 70° S 22:04:58 10° ESE daylight
07 Mar - 23:42:34 10° W 23:56:41 49° SSW 00:08:48 10° SE daylight
08 Mar - 01:51:22 10° W 02:00:30 20° SW 02:08:26 10° S visible
08 Mar - 16:55:54 10° SSW 17:05:49 36° SE 17:18:22 10° E daylight
08 Mar - 18:58:12 10° WSW 19:10:43 64° SSE 19:25:38 10° E daylight
08 Mar - 21:02:58 10° W 21:17:09 71° S 21:31:45 10° ESE daylight
08 Mar - 23:08:59 10° W 23:23:17 52° SSW 23:36:03 10° SE daylight
